Location: American Medical Response
(33.3472°N, 96.5511°W)
Time: 15:05:00
(UTC+00:00)

Cosmos 1805 Rocket - Visible Passes

Search period start: 03 July 2022 00:00
Search period end: 13 July 2022 00:00
Orbit: 605 x 630 km, 82.5° (Epoch: 02 July)

Date Brightness Start Highest point End Pass type
(mag) Time Alt. Az. Time Alt. Az. Time Alt. Az.
03 Jul 6.1 08:44:01 10° ESE 08:46:39 16° E 08:49:15 10° NE visible
03 Jul 4.4 10:21:08 16° SW 10:24:07 33° W 10:28:07 10° NNW visible
04 Jul 5.2 09:01:08 20° SE 09:03:15 30° E 09:07:05 10° NNE visible
04 Jul 5.2 10:38:16 11° WSW 10:41:04 18° WNW 10:44:03 10° NNW visible
05 Jul 3.9 09:18:15 34° SSE 09:19:56 60° E 09:24:16 10° NNE visible
06 Jul 3.5 09:35:19 41° SSW 09:36:43 67° W 09:41:05 10° N visible
07 Jul 5.9 08:15:14 15° E 08:16:05 16° E 08:18:40 10° NE visible
07 Jul 4.4 09:52:23 28° WSW 09:53:33 33° W 09:57:32 10° NNW visible
08 Jul 5.0 08:32:16 29° ESE 08:32:41 30° E 08:36:30 10° NNE visible
08 Jul 5.2 10:09:24 16° W 10:10:30 17° WNW 10:13:27 10° NNW visible
09 Jul 3.8 08:49:17 60° E 08:49:22 60° E 08:53:41 10° NNE visible
10 Jul 3.5 09:06:16 66° WNW 09:06:16 66° WNW 09:10:30 10° N visible
11 Jul 6.0 07:46:06 15° ENE 07:46:06 15° ENE 07:48:05 10° NE visible
11 Jul 4.5 09:23:13 33° WNW 09:23:13 33° WNW 09:26:57 10° NNW visible
12 Jul 5.3 08:03:02 27° ENE 08:03:02 27° ENE 08:05:55 10° NNE visible
12 Jul 5.3 09:40:10 17° WNW 09:40:10 17° WNW 09:42:51 10° NNW visible
